Weather History for KVRB - November, 2012

Change the Weather History Date:

Wednesday, November 21, 2012

  Actual Average Record
Temperature  
Mean Temperature 65 °F 69 °F  
Max Temperature 73 °F 78 °F 86 °F (1988)
Min Temperature 56 °F 60 °F 39 °F (2006)
Degree Days  
Heating Degree Days 0 1  
Month to date heating degree days 20 13  
Since 1 July heating degree days 37 16  
Cooling Degree Days 0 5  
Month to date cooling degree days 63 139  
Year to date cooling degree days 3408 3267  
Growing Degree Days 14 (Base 50)    
Moisture  
Dew Point 54 °F    
Average Humidity 73    
Maximum Humidity 93    
Minimum Humidity 53    
Precipitation  
Precipitation 0.00 in 0.09 in 4.33 in (1984)
Month to date precipitation 0.85 2.40  
Year to date precipitation 46.39 48.80  
Sea Level Pressure  
Sea Level Pressure 30.01 in    
Wind  
Wind Speed 12 mph (NNW)    
Max Wind Speed 23 mph    
Max Gust Speed 29 mph    
Visibility 10 miles    
Events      
T = Trace of Precipitation, MM = Missing Value Source: NWS Daily Summary

Daily Weather History Graph

Daily Weather History Graph

Search for Another Location

Airport or City:

Trip Planner

Search our weather history database for the weather conditions in past years. The results will help you decide how hot, cold, wet, or windy it might be!

Date:

Astronomy

Nov. 21, 2012 Rise Set
Actual Time 6:47 AM EST 5:27 PM EST
Civil Twilight 6:22 AM EST 5:52 PM EST
Nautical Twilight 5:54 AM EST 6:20 PM EST
Astronomical Twilight 5:26 AM EST 6:49 PM EST
Moon 1:14 PM EST (11/21) 12:37 AM EST (11/21)
Length of Visible Light 11h 29m
Length of Day
10h 39m
First Quarter, 61% of the Moon is Illuminated
Nov 21
First Quarter
Nov 28
Full
Dec 6
Last Quarter
Dec 13
New
Dec 20
First Quarter

Hourly Weather History & Observations

Time (EST) Temp. Dew Point Humidity Pressure Visibility Wind Dir Wind Speed Gust Speed Precip Events Conditions
12:53 AM 57.9 °F 55.0 °F 90% 29.99 in 10.0 mi NW 9.2 mph - N/A   Clear
1:53 AM 57.0 °F 54.0 °F 89% 29.98 in 10.0 mi NW 8.1 mph - N/A   Clear
2:53 AM 57.0 °F 54.0 °F 89% 29.97 in 10.0 mi NW 8.1 mph - N/A   Clear
3:53 AM 57.0 °F 54.0 °F 89% 29.97 in 10.0 mi NW 9.2 mph - N/A   Clear
4:53 AM 57.0 °F 54.0 °F 89% 29.97 in 10.0 mi NW 6.9 mph - N/A   Clear
5:53 AM 57.0 °F 55.0 °F 93% 29.99 in 10.0 mi NW 9.2 mph - N/A   Clear
6:53 AM 57.0 °F 55.0 °F 93% 30.01 in 10.0 mi NW 9.2 mph - N/A   Clear
7:53 AM 60.1 °F 57.0 °F 90% 30.01 in 10.0 mi NW 10.4 mph - N/A   Clear
8:53 AM 64.9 °F 57.9 °F 78% 30.03 in 10.0 mi NNW 11.5 mph - N/A   Clear
9:53 AM 69.1 °F 57.9 °F 68% 30.04 in 10.0 mi NNW 16.1 mph 23.0 mph N/A   Clear
10:53 AM 71.1 °F 57.0 °F 61% 30.03 in 10.0 mi North 18.4 mph 25.3 mph N/A   Partly Cloudy
11:53 AM 72.0 °F 55.9 °F 57% 30.01 in 10.0 mi North 16.1 mph - N/A   Partly Cloudy
12:53 PM 72.0 °F 54.0 °F 53% 29.99 in 10.0 mi North 17.3 mph 24.2 mph N/A   Scattered Clouds
1:53 PM 70.0 °F 55.0 °F 59% 29.98 in 10.0 mi North 17.3 mph 25.3 mph N/A   Scattered Clouds
2:53 PM 68.0 °F 54.0 °F 61% 29.98 in 10.0 mi NNW 17.3 mph 25.3 mph N/A   Partly Cloudy
3:53 PM 68.0 °F 53.1 °F 59% 29.98 in 10.0 mi NNW 18.4 mph 26.5 mph N/A   Clear
4:53 PM 66.0 °F 53.1 °F 63% 29.99 in 10.0 mi North 17.3 mph 25.3 mph N/A   Clear
5:53 PM 63.0 °F 53.1 °F 70% 30.01 in 10.0 mi NNW 12.7 mph - N/A   Clear
6:53 PM 62.1 °F 52.0 °F 70% 30.02 in 10.0 mi NNW 10.4 mph - N/A   Clear
7:53 PM 61.0 °F 53.1 °F 75% 30.03 in 10.0 mi NNW 13.8 mph - N/A   Clear
8:53 PM 60.1 °F 53.1 °F 78% 30.04 in 10.0 mi NNW 10.4 mph - N/A   Clear
9:53 PM 59.0 °F 52.0 °F 78% 30.05 in 10.0 mi NNW 10.4 mph - N/A   Clear
10:53 PM 57.9 °F 48.9 °F 72% 30.05 in 10.0 mi NW 9.2 mph - N/A   Clear
11:53 PM 57.0 °F 46.9 °F 69% 30.05 in 10.0 mi NW 10.4 mph - N/A   Clear